Regional Weather Roundup
Issued by NWS Newport/Morehead, NC

Current Version | Previous Version | Graphics & Text | Print | Product List | Glossary Off
Versions: 1 2 3 4 5 6 7 8 9 10 11 12 13 14 15 16 17 18 19 20 21 22 23 24 25 26 27 28 29 30 31 32 33 34 35 36 37 38 39 40 41 42 43 44 45 46 47 48 49 50

954
ASUS42 KMHX 241425
RWRMHX
WEATHER ROUNDUP FOR EASTERN NORTH CAROLINA
NATIONAL WEATHER SERVICE NEWPORT/MOREHEAD CITY NC
900 AM EST TUE JAN 24 2017

NOTE: "FAIR" INDICATES FEW OR NO CLOUDS BELOW 12,000 FEET
WITH NO SIGNIFICANT WEATHER AND/OR OBSTRUCTIONS TO VISIBILITY

NCZ015>017-031-032-045>047-102-103-241500-
NORTH COAST

CITY           SKY/WX    TMP DP  RH WIND       PRES   REMARKS
EDENTON        CLOUDY    44  37  78 NW16      29.55R
ELIZABETH CITY CLOUDY    41  38  89 NW13G20   29.52R
KITTY HAWK     NOT AVBL
MANTEO         CLOUDY    42  37  82 NW15G25   29.51R

$$

NCZ045>047-081-094-103-104-241500-
CENTRAL COAST

CITY           SKY/WX    TMP DP  RH WIND       PRES   REMARKS
FRISCO         CLOUDY    45  39  79 NW16G23     N/A

$$

NCZ095-097-098-100-101-241500-
SOUTHERN COAST

CITY           SKY/WX    TMP DP  RH WIND       PRES   REMARKS
BEAUFORT       SUNNY     46  39  76 NW18G26   29.57R
CEDAR ISLAND   NOT AVBL
JACKSONVILLE   SUNNY     46  40  79 NW10      29.60R
PINEY ISLAND   CLOUDY   N/A N/A N/A NW20G26   29.55
WILMINGTON     PTSUNNY   48  42  80 W12       29.64R


$$

NCZ011>013-027>030-043-044-078>080-089-090>093-098-241500-
COASTAL PLAIN

CITY           SKY/WX    TMP DP  RH WIND       PRES   REMARKS
AHOSKIE          N/A     41  36  82 NW5       29.57R
CLINTON        SUNNY     47  42  80 W6        29.63R
ELIZABETHTOWN  SUNNY     48  42  77 W5        29.65R
GOLDSBORO      SUNNY     46  41  83 W10       29.59R
GREENVILLE     SUNNY     45  37  76 NW9       29.62R
HAVELOCK       PTSUNNY   45  37  73 NW15      29.59R
KENANSVILLE    SUNNY     46  41  81 W8        29.62R
KINSTON        SUNNY     46  39  76 W5        29.60R
NEW BERN       SUNNY     45  36  70 NW13G22   29.59R
RICHLANDS      SUNNY     46  40  79 W7        29.61R
ROCKY MOUNT    SUNNY     44  38  79 NW9       29.59R
WASHINGTON     MOSUNNY   44  36  72 NW8         N/A
WHITEVILLE     CLOUDY    47  42  84 W3        29.65R

$$

AMZ130-135-150-152-154-156-158-170-250-252-270-ANZ085-086-088-633-658-670-241500-
MARINE OBSERVATIONS

STATION/POSITION TIME  TEMP    WIND        PRES    WAVE   SWELL
                       AIR SEA DIR/SP/G            HT/PER HT/PER
                 (UTC) (F)     (DEG/KT/KT) (MB)    (FT/S) (FT/S)
CHESAPEAKE LIGHT NOT AVBL
64 E VA BEACH    1350   44 53  310/ 25/ 29  995.7   12/12   8/12
DUCK             1400   41 46  310/ 18/ 22  998.3
2 E DUCK         1400      46                N/A     7/12   5/12
OREGON INLET     1400   42 49  300/ 17/ 23  998.6
13E OREGON INLT  NOT AVBL
HATTERAS CG      1400   44 56  310/ 20/ 25  999.1
DIAMOND BUOY     1350   46 74  320/ 23/ 27  998.7    9/11   7/11
CAPE LOOKOUT     1400   45     300/ 19/ 24 1000.8
BEAUFORT LAB     1400   45 52  320/  9/ 13 1000.5
30 SE NEW RVR IN 1408   48 66  310/ 19/ 25 1002.4
30 SE NEW RVR IN 1343      66                N/A     7/13   3/13
27 SE WRIGHTSVLE 1408   50 67  280/ 17/ 23 1001.7
5 SE WRIGHTSVLE  1408   48 56  290/ 14/ 21 1003.7
225 S CAPE HAT   1350   66 71  310/ 27/ 35  999.8   15/11   8/11
41 SE CHARLESTON 1350   57 69  290/ 21/ 25 1004.7    6/ 8   2/11

$$




USA.gov is the U.S. government's official web portal to all federal, state and local government web resources and services.